AirNav   Bose Proflight or Bose A20?
 
 1514 users online  

KGDW Gladwin Zettel Memorial Airport
Gladwin, Michigan, USA

GOING TO GLADWIN?


FAA INFORMATION EFFECTIVE 23 MAY 2019

Location

FAA Identifier: GDW
Lat/Long: 43-58-14.1216N / 084-28-30.0720W
43-58.235360N / 084-28.501200W
43.9705893 / -84.4750200
(estimated)
Elevation: 774 ft. / 235.9 m (surveyed)
Variation: 04W (1980)
From city: 1 mile SE of GLADWIN, MI
Time zone: UTC -4 (UTC -5 during Standard Time)
Zip code: 48624

Airport Operations

Airport use: Open to the public
Activation date: 04/1940
Control tower: no
ARTCC: CLEVELAND CENTER
FSS: LANSING FLIGHT SERVICE STATION
NOTAMs facility: LAN (NOTAM-D service available)
Attendance: 0900-1700
UNATTENDED MAJ HOL. FOR ATTENDANT & AFT HOURS CALL 989-578-2174, MGR CELL.
Wind indicator: lighted
Segmented circle: yes
Lights: ACTVT MIRL RY 09/27; PAPI & REIL RYS 09 & 27 - CTAF.
Beacon: white-green (lighted land airport)
Operates sunset to sunrise.

Airport Communications

CTAF/UNICOM: 122.8
GREAT LAKES APPROACH: 126.45
GREAT LAKES DEPARTURE: 126.45
  • APCH/DEP SERVICE PROVIDED BY CLEVELAND ARTCC (ZOB) ON FREQS 127.7/307.8 (SAGINAW RCAG) WHEN GREAT LAKES APCH CTL CLSD.

Nearby radio navigation aids

VOR radial/distance  VOR name  Freq  Var
MOPr034/23.8MOUNT PLEASANT VOR/DME110.6005W
MBSr330/31.5SAGINAW VOR/DME112.9003W

Airport Services

Fuel available: 100LL JET-A
SELF SVC FUEL AVBL 24 HRS WITH CREDIT CARD.
Parking: tiedowns

Runway Information

Runway 9/27

Dimensions: 4699 x 75 ft. / 1432 x 23 m
Surface: asphalt, in good condition
Weight bearing capacity: 
Single wheel: 44.0
Double wheel: 60.0
Double tandem: 90.0
Runway edge lights: medium intensity
RUNWAY 9  RUNWAY 27
Latitude: 43-58.304538N43-58.335603N
Longitude: 084-28.971977W084-27.901978W
Elevation: 771.2 ft.772.6 ft.
Traffic pattern: leftleft
Runway heading: 092 magnetic, 088 true272 magnetic, 268 true
Markings: nonprecision, in good conditionnonprecision, in good condition
Visual slope indicator: 2-light PAPI on left (3.00 degrees glide path)2-light PAPI on left (3.00 degrees glide path)
Runway end identifier lights: yesyes
Touchdown point: yes, no lightsyes, no lights
Obstructions: 100 ft. trees, 2200 ft. from runway, 20:1 slope to clear50 ft. brush, 1400 ft. from runway, 24:1 slope to clear

Runway 15/33

Dimensions: 2580 x 150 ft. / 786 x 46 m
Surface: turf, in fair condition
Runway edge markings: 15/33 MKD WITH 3 FT YELLOW CONES
Operational restrictions: CLSD WHEN SNOW COVERED EXCP FOR SKI EQUIPPED ACFT.
RUNWAY 15  RUNWAY 33
Latitude: 43-58.276012N43-57.886137N
Longitude: 084-28.734625W084-28.501718W
Elevation: 772.6 ft.764.2 ft.
Traffic pattern: leftleft
Runway heading: 161 magnetic, 157 true341 magnetic, 337 true
Touchdown point: yes, no lightsyes, no lights

Airport Ownership and Management from official FAA records

Ownership: Publicly-owned
Owner: CITY/COUNTY OF GLADWIN
1000 W. CEDAR AVE
GLADWIN, MI 48624
Phone 989-426-9231
CITY HALL.
Manager: MICHAEL HARGRAVE
735 STATE ST
GLADWIN, MI 48624
Phone 989-426-4201

Airport Operational Statistics

Aircraft based on the field: 15
Single engine airplanes: 11
Multi engine airplanes: 2
Ultralights: 2
    
Aircraft operations: avg 85/week *
50% transient general aviation
50% local general aviation
* for 12-month period ending 31 December 2016

Additional Remarks

DEER & BIRDS ON & INVOF ARPT.
RDO CTL ACFT OPER NEAR WEST SIDE OF RY 15/33.
TERM. BLDG ACCESS,5-3-2-1-*.
APCH/DEP SERVICE PROVIDED BY CLEVELAND ARTCC (ZOB) ON FREQS 127.7/307.8 (SAGINAW RCAG) OR CALL CLEVELAND ARTCC (ZOB) 440-774-0386 WHEN SAGINAW (MBS) APCH CTL CLSD.

Instrument Procedures

NOTE: All procedures below are presented as PDF files. If you need a reader for these files, you should download the free Adobe Reader.

NOT FOR NAVIGATION. Please procure official charts for flight.
FAA instrument procedures published for use from 23 May 2019 at 0901Z to 20 June 2019 at 0900Z.

 
IAPs - Instrument Approach Procedures
RNAV (GPS) RWY 09   download (193KB)
RNAV (GPS) RWY 27   download (217KB)
NOTE: Special Take-Off Minimums/Departure Procedures apply   download (122KB)

Other nearby airports with instrument procedures:

48D - Clare Municipal Airport (14 nm SW)
KIKW - Jack Barstow Airport (21 nm SE)
Y31 - West Branch Community Airport (21 nm NE)
KMOP - Mount Pleasant Municipal Airport (24 nm SW)
KHTL - Roscommon County - Blodgett Memorial Airport (25 nm N)
 
Loc | Ops | Rwys | IFR | FBO | Links
Com | Nav | Svcs | Stats | Notes
Area around KGDW (Gladwin Zettel Memorial Airport)
 
Road maps at: MapQuest Bing Google
 
Aerial photo
WARNING: Photo may not be current or correct
Aerial photo of KGDW (Gladwin Zettel Memorial Airport)
Photo by Carol Batten

Do you have a better or more recent aerial photo of Gladwin Zettel Memorial Airport that you would like to share? If so, please send us your photo.

 
Sectional chart

 
Airport distance calculator
Flying to Gladwin Zettel Memorial Airport? Find the distance to fly.

From to KGDW

Sunrise and sunset
Times for 17-Jun-2019
 Local
(UTC-4)
 Zulu
(UTC)
Morning civil twilight05:1909:19
Sunrise05:5609:56
Sunset21:2201:22
Evening civil twilight21:5801:58

Current date and time
Zulu (UTC)  17-Jun-2019 17:44:38
Local (UTC-4)  17-Jun-2019 13:44:38
 
METAR
KIKW 
21nm SE 
171725Z AUTO 14003KT 10SM BKN023 OVC030 18/12 A3004 RMK AO2
KY31 
21nm NE 
171739Z AUTO 00000KT 10SM CLR 20/10 A3002 RMK AO2 T02010097
KMOP 
24nm SW 
171736Z AUTO 14004KT 10SM SCT025 20/13 A3003 RMK AO2 T01950131
KHTL 
24nm N 
171653Z AUTO 22007KT 10SM SCT035 19/09 A3005 RMK AO2 SLP175 T01940094
KMBS 
31nm SE 
171653Z 03005KT 10SM OVC022 18/13 A3006 RMK AO2 SLP178 T01780133
KAMN 
40nm S 
171736Z AUTO 05004KT 10SM OVC019 19/13 A3005 RMK AO2 T01860133
TAF
KMBS 
31nm SE 
171447Z 1715/1812 04005KT P6SM OVC025 FM180200 VRB03KT P6SM BKN040 OVC250 FM180800 03005KT P6SM SCT025 OVC040
NOTAMs
Click for the latest NOTAMs
NOTAMs are issued by the DoD/FAA and will open in a separate window not controlled by AirNav.

 

 
 

FBO, Fuel Providers, and Aircraft Ground Support

  
 Business Name 
 
 Contact 
 
 Services / Description 
 
Fuel Prices
 
Comments
  
Gladwin Zettel Memorial Airport 989-426-4201 Aviation fuel

More info about Gladwin Zettel Memorial Airport
Avfuel
100LL Jet A
AS $4.19 --- 
FS $4.19 $4.50 
 Updated 27-May-2019
 
   3 read write
AS=Assisted/Self Service
FS=Full service
Update Fuel Prices
 

Would you like to see your business listed on this page?

 If your business provides an interesting product or service to pilots, flight crews, aircraft, or users of the Gladwin Zettel Memorial Airport, you should consider listing it here.  To start the listing process, click on the button below
 
Add a business
 

Other Pages about Gladwin Zettel Memorial Airport

Page from the Michigan Airport Directory (PDF)
 
Update a link
 
Copyright © AirNav, LLC. All rights reserved. Privacy Policy  Contact